This is the latest recevied weather packets stored in our database for station/object FW0727. If no packets are shown the sender has not sent any weather packets the latest 10 day(s).
| Time | Temp. | Humidity | Pressure | Rain* | Wind** | Luminosity | Snow |
|---|---|---|---|---|---|---|---|
| 1787778896 | 20° C | 58% | 1017.6 hPa | - | - | - | - |
| 1787778224 | 20° C | 57% | 1017.8 hPa | - | - | - | - |
| 1787777543 | 20° C | 58% | 1017.7 hPa | - | - | - | - |
| 1787777196 | 20° C | 57% | 1017.7 hPa | - | - | - | - |
| 1787776843 | 20° C | 57% | 1017.5 hPa | - | - | - | - |
| 1787776162 | 20° C | 57% | 1017.4 hPa | - | - | - | - |
| 1787775809 | 20.56° C | 56% | 1017.5 hPa | - | - | - | - |
| 1787775463 | 20.56° C | 56% | 1017.6 hPa | - | - | - | - |
| 1787774792 | 21.11° C | 55% | 1017.6 hPa | - | - | - | - |
| 1787774440 | 20.56° C | 55% | 1017.5 hPa | - | - | - | - |
| 1787774088 | 20.56° C | 55% | 1017.4 hPa | - | - | - | - |
| 1787773735 | 20.56° C | 56% | 1017.1 hPa | - | - | - | - |
| 1787773382 | 20.56° C | 55% | 1016.8 hPa | - | - | - | - |
| 1787773029 | 20.56° C | 54% | 1016.7 hPa | - | - | - | - |
| 1787772685 | 21.11° C | 54% | 1016.4 hPa | - | - | - | - |
| 1787772005 | 21.11° C | 52% | 1016.5 hPa | - | - | - | - |
| 1787771324 | 21.11° C | 52% | 1016.8 hPa | - | - | - | - |
| 1787770980 | 21.11° C | 51% | 1016.6 hPa | - | - | - | - |
| 1787770626 | 21.67° C | 50% | 1016.5 hPa | - | - | - | - |
| 1787769945 | 21.67° C | 49% | 1016.2 hPa | - | - | - | - |
| 1787769593 | 21.67° C | 48% | 1016.2 hPa | - | - | - | - |
| 1787769240 | 21.67° C | 48% | 1016.3 hPa | - | - | - | - |
| 1787768889 | 21.67° C | 49% | 1016.4 hPa | - | - | - | - |
| 1787768537 | 21.67° C | 49% | 1016.3 hPa | - | - | - | - |
| 1787768185 | 21.11° C | 48% | 1016.2 hPa | - | - | - | - |
* Rain since midnight (hover to see other rain measurements)
** Current wind speed in m/s (hover to see current wind gust speed)